Terminal Aerodrome Forecast
Issued by NWS

Home | Current Version | Previous Version | Text Only | Print | Product List | Glossary On
Versions: 1 2 3 4 5 6 7 8 9 10 11 12 13
437
FTUS42 KILM 240525 AAA
TAFCRE
TAF AMD
KCRE 240525Z 2405/2506 06008KT P6SM VCSH OVC008
      TEMPO 2406/2410 3SM SHRA OVC005
     FM241500 13012G20KT 4SM SHRA OVC020
     FM250000 12010KT 2SM +SHRA OVC006
     FM250300 16009KT 2SM +SHRA BKN003=

USA.gov is the U.S. government's official web portal to all federal, state and local government web resources and services.